"datetime","temp","dp","rain_mm","uv","mb"
"2015-01-03 00:00:00",1.2,0.6,0.0,0.0,1032.8
"2015-01-03 00:01:00",1.2,0.6,0.0,0.0,1032.9
"2015-01-03 00:02:00",1.2,0.6,0.0,0.0,1032.9
"2015-01-03 00:03:00",1.2,0.6,0.0,0.0,1032.9
"2015-01-03 00:04:00",1.2,0.6,0.0,0.0,1032.9
"2015-01-03 00:05:00",1.2,0.6,0.0,0.0,1032.9
"2015-01-03 00:06:00",1.2,0.6,0.0,0.0,1032.8
"2015-01-03 00:07:00",1.2,0.6,0.0,0.0,1032.8
"2015-01-03 00:08:00",1.2,0.6,0.0,0.0,1032.8
"2015-01-03 00:09:00",1.2,0.6,0.0,0.0,1032.8
"2015-01-03 00:10:00",1.2,0.6,0.0,0.0,1032.8
"2015-01-03 00:11:00",1.2,0.7,0.0,0.0,1032.8
"2015-01-03 00:12:00",1.2,0.8,0.0,0.0,1032.8
"2015-01-03 00:13:00",1.2,0.8,0.0,0.0,1032.8
"2015-01-03 00:14:00",1.2,0.8,0.0,0.0,1032.8
"2015-01-03 00:15:00",1.2,0.8,0.0,0.0,1032.8
"2015-01-03 00:16:00",1.3,0.9,0.0,0.0,1032.8
"2015-01-03 00:17:00",1.3,0.9,0.0,0.0,1032.8
"2015-01-03 00:18:00",1.3,0.9,0.0,0.0,1032.8
"2015-01-03 00:19:00",1.3,0.9,0.0,0.0,1032.7
"2015-01-03 00:20:00",1.3,0.9,0.0,0.0,1032.7
"2015-01-03 00:21:00",1.3,0.9,0.0,0.0,1032.7
"2015-01-03 00:22:00",1.3,0.9,0.0,0.0,1032.6
"2015-01-03 00:23:00",1.3,0.9,0.0,0.0,1032.6
"2015-01-03 00:24:00",1.3,0.9,0.0,0.0,1032.6
"2015-01-03 00:25:00",1.3,0.9,0.0,0.0,1032.5
"2015-01-03 00:26:00",1.3,0.9,0.0,0.0,1032.5
"2015-01-03 00:27:00",1.3,0.9,0.0,0.0,1032.5
"2015-01-03 00:28:00",1.3,0.9,0.0,0.0,1032.4
"2015-01-03 00:29:00",1.3,0.9,0.0,0.0,1032.4
"2015-01-03 00:30:00",1.3,0.9,0.0,0.0,1032.3
"2015-01-03 00:31:00",1.3,0.9,0.0,0.0,1032.3
"2015-01-03 00:32:00",1.3,0.9,0.0,0.0,1032.2
"2015-01-03 00:33:00",1.3,0.9,0.0,0.0,1032.2
"2015-01-03 00:34:00",1.4,1.0,0.0,0.0,1032.1
"2015-01-03 00:35:00",1.4,1.0,0.0,0.0,1032.0
"2015-01-03 00:36:00",1.4,1.0,0.0,0.0,1032.0
"2015-01-03 00:37:00",1.4,1.0,0.0,0.0,1031.9
"2015-01-03 00:38:00",1.4,1.0,0.0,0.0,1032.0
"2015-01-03 00:39:00",1.4,1.0,0.0,0.0,1031.9
"2015-01-03 00:40:00",1.4,1.0,0.0,0.0,1031.8
"2015-01-03 00:41:00",1.4,1.0,0.0,0.0,1031.8
"2015-01-03 00:42:00",1.4,1.0,0.0,0.0,1031.7
"2015-01-03 00:43:00",1.5,1.0,0.0,0.0,1031.7
"2015-01-03 00:44:00",1.5,1.1,0.0,0.0,1031.7
"2015-01-03 00:45:00",1.5,1.1,0.0,0.0,1031.7
"2015-01-03 00:46:00",1.5,1.1,0.0,0.0,1031.7
"2015-01-03 00:47:00",1.5,1.1,0.0,0.0,1031.7
"2015-01-03 00:48:00",1.5,1.1,0.0,0.0,1031.7
"2015-01-03 00:49:00",1.5,1.1,0.0,0.0,1031.6
"2015-01-03 00:50:00",1.5,1.1,0.0,0.0,1031.6
"2015-01-03 00:51:00",1.5,1.1,0.0,0.0,1031.6
"2015-01-03 00:52:00",1.6,1.1,0.0,0.0,1031.6
"2015-01-03 00:53:00",1.6,1.1,0.0,0.0,1031.6
"2015-01-03 00:54:00",1.6,1.1,0.0,0.0,1031.5
"2015-01-03 00:55:00",1.6,1.1,0.0,0.0,1031.5
"2015-01-03 00:56:00",1.6,1.1,0.0,0.0,1031.4
"2015-01-03 00:57:00",1.6,1.1,0.0,0.0,1031.4
"2015-01-03 00:58:00",1.6,1.1,0.0,0.0,1031.4
"2015-01-03 00:59:00",1.6,1.1,0.0,0.0,1031.3
"2015-01-03 01:00:00",1.6,1.2,0.0,0.0,1031.2
"2015-01-03 01:01:00",1.6,1.2,0.0,0.0,1031.1
"2015-01-03 01:02:00",1.6,1.2,0.0,0.0,1031.1
"2015-01-03 01:03:00",1.6,1.2,0.0,0.0,1031.1
"2015-01-03 01:04:00",1.6,1.2,0.0,0.0,1031.1
"2015-01-03 01:05:00",1.6,1.2,0.0,0.0,1031.1
"2015-01-03 01:06:00",1.6,1.2,0.0,0.0,1031.1
"2015-01-03 01:07:00",1.6,1.2,0.0,0.0,1031.2
"2015-01-03 01:08:00",1.6,1.2,0.0,0.0,1031.1
"2015-01-03 01:09:00",1.7,1.2,0.0,0.0,1031.1
"2015-01-03 01:10:00",1.7,1.2,0.0,0.0,1031.1
"2015-01-03 01:11:00",1.7,1.2,0.0,0.0,1031.1
"2015-01-03 01:12:00",1.7,1.2,0.0,0.0,1031.1
"2015-01-03 01:13:00",1.7,1.2,0.0,0.0,1031.1
"2015-01-03 01:14:00",1.7,1.2,0.0,0.0,1031.2
"2015-01-03 01:15:00",1.7,1.2,0.0,0.0,1031.2
"2015-01-03 01:16:00",1.7,1.2,0.0,0.0,1031.2
"2015-01-03 01:17:00",1.7,1.3,0.0,0.0,1031.2
"2015-01-03 01:18:00",1.7,1.3,0.0,0.0,1031.2
"2015-01-03 01:19:00",1.7,1.3,0.0,0.0,1031.2
"2015-01-03 01:20:00",1.7,1.3,0.0,0.0,1031.1
"2015-01-03 01:21:00",1.7,1.3,0.0,0.0,1031.1
"2015-01-03 01:22:00",1.7,1.3,0.0,0.0,1031.1
"2015-01-03 01:23:00",1.7,1.3,0.0,0.0,1031.0
"2015-01-03 01:24:00",1.7,1.3,0.0,0.0,1031.0
"2015-01-03 01:25:00",1.7,1.3,0.0,0.0,1031.0
"2015-01-03 01:26:00",1.8,1.3,0.0,0.0,1031.0
"2015-01-03 01:27:00",1.8,1.4,0.0,0.0,1031.0
"2015-01-03 01:28:00",1.8,1.4,0.0,0.0,1030.9
"2015-01-03 01:29:00",1.8,1.4,0.0,0.0,1030.8
"2015-01-03 01:30:00",1.8,1.4,0.0,0.0,1030.8
"2015-01-03 01:31:00",1.8,1.4,0.0,0.0,1030.8
"2015-01-03 01:32:00",1.8,1.4,0.0,0.0,1030.7
"2015-01-03 01:33:00",1.8,1.4,0.0,0.0,1030.7
"2015-01-03 01:34:00",1.8,1.4,0.0,0.0,1030.7
"2015-01-03 01:35:00",1.8,1.4,0.0,0.0,1030.6
"2015-01-03 01:36:00",1.8,1.4,0.0,0.0,1030.6
"2015-01-03 01:37:00",1.8,1.4,0.0,0.0,1030.6
"2015-01-03 01:38:00",1.8,1.4,0.0,0.0,1030.6
"2015-01-03 01:39:00",1.8,1.4,0.0,0.0,1030.6
"2015-01-03 01:40:00",1.8,1.4,0.0,0.0,1030.5
"2015-01-03 01:41:00",1.8,1.4,0.0,0.0,1030.5
"2015-01-03 01:42:00",1.8,1.4,0.0,0.0,1030.4
"2015-01-03 01:43:00",1.9,1.4,0.0,0.0,1030.4
"2015-01-03 01:44:00",1.8,1.4,0.0,0.0,1030.4
"2015-01-03 01:45:00",1.9,1.5,0.0,0.0,1030.4
"2015-01-03 01:46:00",1.9,1.5,0.0,0.0,1030.4
"2015-01-03 01:47:00",1.9,1.5,0.0,0.0,1030.4
"2015-01-03 01:48:00",1.9,1.5,0.0,0.0,1030.3
"2015-01-03 01:49:00",1.9,1.5,0.0,0.0,1030.2
"2015-01-03 01:50:00",1.9,1.5,0.0,0.0,1030.2
"2015-01-03 01:51:00",1.9,1.5,0.0,0.0,1030.2
"2015-01-03 01:52:00",1.9,1.5,0.0,0.0,1030.2
"2015-01-03 01:53:00",1.9,1.5,0.0,0.0,1030.2
"2015-01-03 01:54:00",1.9,1.5,0.0,0.0,1030.2
"2015-01-03 01:55:00",1.9,1.5,0.0,0.0,1030.1
"2015-01-03 01:56:00",1.9,1.5,0.0,0.0,1030.1
"2015-01-03 01:57:00",1.9,1.5,0.0,0.0,1030.1
"2015-01-03 01:58:00",1.9,1.5,0.0,0.0,1030.1
"2015-01-03 01:59:00",1.9,1.5,0.0,0.0,1030.0
"2015-01-03 02:00:00",1.9,1.5,0.0,0.0,1030.0
"2015-01-03 02:01:00",1.9,1.5,0.0,0.0,1030.0
"2015-01-03 02:02:00",2.0,1.5,0.0,0.0,1030.0
"2015-01-03 02:03:00",2.0,1.6,0.0,0.0,1030.0
"2015-01-03 02:04:00",2.0,1.6,0.0,0.0,1029.9
"2015-01-03 02:05:00",2.0,1.6,0.0,0.0,1029.9
"2015-01-03 02:06:00",2.0,1.6,0.0,0.0,1029.9
"2015-01-03 02:07:00",2.0,1.6,0.0,0.0,1029.9
"2015-01-03 02:08:00",2.0,1.6,0.0,0.0,1029.9
"2015-01-03 02:09:00",2.0,1.6,0.0,0.0,1029.8
"2015-01-03 02:10:00",2.0,1.6,0.0,0.0,1029.8
"2015-01-03 02:11:00",2.0,1.6,0.0,0.0,1029.8
"2015-01-03 02:12:00",2.0,1.6,0.0,0.0,1029.8
"2015-01-03 02:13:00",2.1,1.6,0.0,0.0,1029.7
"2015-01-03 02:14:00",2.1,1.6,0.0,0.0,1029.7
"2015-01-03 02:15:00",2.1,1.6,0.0,0.0,1029.7
"2015-01-03 02:16:00",2.1,1.6,0.0,0.0,1029.6
"2015-01-03 02:17:00",2.1,1.6,0.0,0.0,1029.6
"2015-01-03 02:18:00",2.1,1.6,0.0,0.0,1029.6
"2015-01-03 02:19:00",2.1,1.6,0.0,0.0,1029.6
"2015-01-03 02:20:00",2.1,1.6,0.0,0.0,1029.5
"2015-01-03 02:21:00",2.1,1.6,0.0,0.0,1029.4
"2015-01-03 02:22:00",2.1,1.7,0.0,0.0,1029.4
"2015-01-03 02:23:00",2.1,1.8,0.0,0.0,1029.4
"2015-01-03 02:24:00",2.1,1.8,0.0,0.0,1029.4
"2015-01-03 02:25:00",2.1,1.8,0.0,0.0,1029.3
"2015-01-03 02:26:00",2.1,1.8,0.0,0.0,1029.4
"2015-01-03 02:27:00",2.1,1.8,0.0,0.0,1029.3
"2015-01-03 02:28:00",2.1,1.8,0.0,0.0,1029.3
"2015-01-03 02:29:00",2.1,1.8,0.0,0.0,1029.3
"2015-01-03 02:30:00",2.1,1.8,0.0,0.0,1029.2
"2015-01-03 02:31:00",2.2,1.9,0.0,0.0,1029.2
"2015-01-03 02:32:00",2.2,1.9,0.0,0.0,1029.1
"2015-01-03 02:33:00",2.2,1.9,0.0,0.0,1029.1
"2015-01-03 02:34:00",2.2,1.9,0.0,0.0,1029.1
"2015-01-03 02:35:00",2.2,1.9,0.0,0.0,1029.1
"2015-01-03 02:36:00",2.2,1.9,0.0,0.0,1029.1
"2015-01-03 02:37:00",2.2,1.9,0.0,0.0,1029.1
"2015-01-03 02:38:00",2.2,1.9,0.0,0.0,1029.0
"2015-01-03 02:39:00",2.2,1.9,0.0,0.0,1029.0
"2015-01-03 02:40:00",2.2,1.9,0.0,0.0,1029.0
"2015-01-03 02:41:00",2.2,1.9,0.0,0.0,1028.9
"2015-01-03 02:42:00",2.2,1.9,0.0,0.0,1028.9
"2015-01-03 02:43:00",2.2,1.9,0.0,0.0,1028.8
"2015-01-03 02:44:00",2.2,1.9,0.0,0.0,1028.8
"2015-01-03 02:45:00",2.2,1.9,0.0,0.0,1028.7
"2015-01-03 02:46:00",2.2,1.9,0.0,0.0,1028.7
"2015-01-03 02:47:00",2.2,2.0,0.0,0.0,1028.7
"2015-01-03 02:48:00",2.3,2.0,0.0,0.0,1028.6
"2015-01-03 02:49:00",2.3,2.0,0.0,0.0,1028.6
"2015-01-03 02:50:00",2.3,2.0,0.0,0.0,1028.6
"2015-01-03 02:51:00",2.3,2.0,0.0,0.0,1028.5
"2015-01-03 02:52:00",2.3,2.0,0.0,0.0,1028.5
"2015-01-03 02:53:00",2.3,2.0,0.0,0.0,1028.5
"2015-01-03 02:54:00",2.3,2.0,0.0,0.0,1028.5
"2015-01-03 02:55:00",2.3,2.0,0.0,0.0,1028.5
"2015-01-03 02:56:00",2.3,2.0,0.0,0.0,1028.5
"2015-01-03 02:57:00",2.3,2.1,0.0,0.0,1028.5
"2015-01-03 02:58:00",2.3,2.1,0.0,0.0,1028.5
"2015-01-03 02:59:00",2.3,2.1,0.0,0.0,1028.6
"2015-01-03 03:00:00",2.3,2.1,0.0,0.0,1028.6
"2015-01-03 03:01:00",2.3,2.1,0.0,0.0,1028.6
"2015-01-03 03:02:00",2.3,2.1,0.0,0.0,1028.6
"2015-01-03 03:03:00",2.3,2.1,0.0,0.0,1028.6
"2015-01-03 03:04:00",2.3,2.1,0.0,0.0,1028.6
"2015-01-03 03:05:00",2.3,2.1,0.0,0.0,1028.6
"2015-01-03 03:06:00",2.4,2.1,0.0,0.0,1028.5
"2015-01-03 03:07:00",2.4,2.1,0.0,0.0,1028.5
"2015-01-03 03:08:00",2.4,2.1,0.0,0.0,1028.5
"2015-01-03 03:09:00",2.4,2.1,0.0,0.0,1028.5
"2015-01-03 03:10:00",2.4,2.1,0.0,0.0,1028.4
"2015-01-03 03:11:00",2.4,2.1,0.0,0.0,1028.4
"2015-01-03 03:12:00",2.4,2.1,0.0,0.0,1028.4
"2015-01-03 03:13:00",2.4,2.2,0.0,0.0,1028.4
"2015-01-03 03:14:00",2.4,2.2,0.0,0.0,1028.4
"2015-01-03 03:15:00",2.4,2.2,0.0,0.0,1028.4
"2015-01-03 03:16:00",2.4,2.2,0.0,0.0,1028.3
"2015-01-03 03:17:00",2.4,2.2,0.0,0.0,1028.3
"2015-01-03 03:18:00",2.4,2.2,0.0,0.0,1028.3
"2015-01-03 03:19:00",2.4,2.2,0.0,0.0,1028.3
"2015-01-03 03:20:00",2.4,2.2,0.0,0.0,1028.3
"2015-01-03 03:21:00",2.4,2.2,0.0,0.0,1028.3
"2015-01-03 03:22:00",2.5,2.2,0.0,0.0,1028.4
"2015-01-03 03:23:00",2.5,2.2,0.0,0.0,1028.3
"2015-01-03 03:24:00",2.5,2.2,0.0,0.0,1028.3
"2015-01-03 03:25:00",2.5,2.2,0.0,0.0,1028.2
"2015-01-03 03:26:00",2.5,2.2,0.0,0.0,1028.2
"2015-01-03 03:27:00",2.5,2.2,0.0,0.0,1028.2
"2015-01-03 03:28:00",2.5,2.2,0.0,0.0,1028.2
"2015-01-03 03:29:00",2.5,2.2,0.0,0.0,1028.2
"2015-01-03 03:30:00",2.5,2.2,0.0,0.0,1028.2
"2015-01-03 03:31:00",2.5,2.2,0.0,0.0,1028.1
"2015-01-03 03:32:00",2.5,2.2,0.0,0.0,1028.1
"2015-01-03 03:33:00",2.5,2.2,0.0,0.0,1028.1
"2015-01-03 03:34:00",2.5,2.2,0.0,0.0,1028.1
"2015-01-03 03:35:00",2.5,2.2,0.0,0.0,1028.1
"2015-01-03 03:36:00",2.5,2.2,0.0,0.0,1028.0
"2015-01-03 03:37:00",2.6,2.3,0.0,0.0,1028.0
"2015-01-03 03:38:00",2.6,2.3,0.0,0.0,1027.9
"2015-01-03 03:39:00",2.6,2.3,0.0,0.0,1027.9
"2015-01-03 03:40:00",2.6,2.3,0.0,0.0,1027.8
"2015-01-03 03:41:00",2.6,2.3,0.0,0.0,1027.8
"2015-01-03 03:42:00",2.6,2.3,0.0,0.0,1027.8
"2015-01-03 03:43:00",2.6,2.3,0.0,0.0,1027.7
"2015-01-03 03:44:00",2.6,2.3,0.0,0.0,1027.8
"2015-01-03 03:45:00",2.6,2.3,0.0,0.0,1027.7
"2015-01-03 03:46:00",2.6,2.3,0.0,0.0,1027.7
"2015-01-03 03:47:00",2.6,2.3,0.0,0.0,1027.8
"2015-01-03 03:48:00",2.6,2.3,0.0,0.0,1027.8
"2015-01-03 03:49:00",2.6,2.3,0.0,0.0,1027.8
"2015-01-03 03:50:00",2.6,2.3,0.0,0.0,1027.8
"2015-01-03 03:51:00",2.6,2.3,0.0,0.0,1027.8
"2015-01-03 03:52:00",2.6,2.3,0.0,0.0,1027.8
"2015-01-03 03:53:00",2.6,2.3,0.0,0.0,1027.7
"2015-01-03 03:54:00",2.6,2.3,0.0,0.0,1027.7
"2015-01-03 03:55:00",2.6,2.3,0.0,0.0,1027.7
"2015-01-03 03:56:00",2.6,2.3,0.0,0.0,1027.6
"2015-01-03 03:57:00",2.6,2.3,0.0,0.0,1027.6
"2015-01-03 03:58:00",2.6,2.3,0.0,0.0,1027.6
"2015-01-03 03:59:00",2.6,2.3,0.0,0.0,1027.5
"2015-01-03 04:00:00",2.6,2.3,0.0,0.0,1027.5
"2015-01-03 04:01:00",2.6,2.3,0.0,0.0,1027.5
"2015-01-03 04:02:00",2.6,2.3,0.0,0.0,1027.5
"2015-01-03 04:03:00",2.6,2.3,0.0,0.0,1027.5
"2015-01-03 04:04:00",2.6,2.3,0.0,0.0,1027.4
"2015-01-03 04:05:00",2.6,2.3,0.0,0.0,1027.4
"2015-01-03 04:06:00",2.6,2.3,0.0,0.0,1027.4
"2015-01-03 04:07:00",2.6,2.3,0.0,0.0,1027.4
"2015-01-03 04:08:00",2.6,2.3,0.0,0.0,1027.3
"2015-01-03 04:09:00",2.6,2.3,0.0,0.0,1027.3
"2015-01-03 04:10:00",2.6,2.4,0.0,0.0,1027.3
"2015-01-03 04:11:00",2.7,2.4,0.0,0.0,1027.3
"2015-01-03 04:12:00",2.7,2.4,0.0,0.0,1027.3
"2015-01-03 04:13:00",2.7,2.4,0.0,0.0,1027.3
"2015-01-03 04:14:00",2.7,2.4,0.2,0.0,1027.3
"2015-01-03 04:15:00",2.7,2.4,0.2,0.0,1027.2
"2015-01-03 04:16:00",2.7,2.4,0.2,0.0,1027.3
"2015-01-03 04:17:00",2.7,2.4,0.2,0.0,1027.2
"2015-01-03 04:18:00",2.7,2.4,0.2,0.0,1027.2
"2015-01-03 04:19:00",2.7,2.4,0.2,0.0,1027.2
"2015-01-03 04:20:00",2.7,2.4,0.2,0.0,1027.2
"2015-01-03 04:21:00",2.7,2.4,0.4,0.0,1027.2
"2015-01-03 04:22:00",2.7,2.4,0.4,0.0,1027.2
"2015-01-03 04:23:00",2.7,2.4,0.4,0.0,1027.3
"2015-01-03 04:24:00",2.7,2.4,0.4,0.0,1027.2
"2015-01-03 04:25:00",2.7,2.4,0.6,0.0,1027.2
"2015-01-03 04:26:00",2.8,2.5,0.6,0.0,1027.2
"2015-01-03 04:27:00",2.8,2.5,0.6,0.0,1027.1
"2015-01-03 04:28:00",2.8,2.5,0.6,0.0,1027.1
"2015-01-03 04:29:00",2.8,2.5,0.6,0.0,1027.1
"2015-01-03 04:30:00",2.8,2.5,0.6,0.0,1027.1
"2015-01-03 04:31:00",2.8,2.5,0.6,0.0,1027.1
"2015-01-03 04:32:00",2.8,2.5,0.8,0.0,1027.1
"2015-01-03 04:33:00",2.8,2.5,0.8,0.0,1027.0
"2015-01-03 04:34:00",2.8,2.5,0.8,0.0,1027.0
"2015-01-03 04:35:00",2.8,2.5,1.0,0.0,1027.0
"2015-01-03 04:36:00",2.8,2.5,1.0,0.0,1027.0
"2015-01-03 04:37:00",2.8,2.5,1.0,0.0,1026.9
"2015-01-03 04:38:00",2.8,2.5,1.0,0.0,1026.8
"2015-01-03 04:39:00",2.8,2.5,1.0,0.0,1026.8
"2015-01-03 04:40:00",2.8,2.5,1.0,0.0,1026.8
"2015-01-03 04:41:00",2.8,2.5,1.2,0.0,1026.7
"2015-01-03 04:42:00",2.8,2.6,1.2,0.0,1026.7
"2015-01-03 04:43:00",2.8,2.6,1.2,0.0,1026.6
"2015-01-03 04:44:00",2.9,2.6,1.2,0.0,1026.6
"2015-01-03 04:45:00",2.9,2.6,1.2,0.0,1026.5
"2015-01-03 04:46:00",2.9,2.6,1.2,0.0,1026.5
"2015-01-03 04:47:00",2.9,2.6,1.2,0.0,1026.5
"2015-01-03 04:48:00",2.9,2.6,1.2,0.0,1026.4
"2015-01-03 04:49:00",2.9,2.6,1.4,0.0,1026.4
"2015-01-03 04:50:00",2.9,2.7,1.4,0.0,1026.4
"2015-01-03 04:51:00",2.9,2.7,1.4,0.0,1026.4
"2015-01-03 04:52:00",2.9,2.7,1.4,0.0,1026.4
"2015-01-03 04:53:00",2.9,2.7,1.4,0.0,1026.3
"2015-01-03 04:54:00",2.9,2.7,1.4,0.0,1026.3
"2015-01-03 04:55:00",2.9,2.7,1.6,0.0,1026.2
"2015-01-03 04:56:00",2.9,2.7,1.6,0.0,1026.2
"2015-01-03 04:57:00",2.9,2.7,1.6,0.0,1026.1
"2015-01-03 04:58:00",3.0,2.7,1.6,0.0,1026.0
"2015-01-03 04:59:00",3.0,2.7,1.8,0.0,1026.0
"2015-01-03 05:00:00",3.0,2.7,1.8,0.0,1026.0
"2015-01-03 05:01:00",3.0,2.7,1.8,0.0,1026.0
"2015-01-03 05:02:00",3.0,2.7,1.8,0.0,1025.9
"2015-01-03 05:03:00",3.0,2.7,1.8,0.0,1025.9
"2015-01-03 05:04:00",3.0,2.7,2.0,0.0,1025.8
"2015-01-03 05:05:00",3.0,2.7,2.0,0.0,1025.8
"2015-01-03 05:06:00",3.0,2.7,2.0,0.0,1025.7
"2015-01-03 05:07:00",3.0,2.7,2.0,0.0,1025.7
"2015-01-03 05:08:00",3.0,2.7,2.2,0.0,1025.7
"2015-01-03 05:09:00",3.0,2.7,2.2,0.0,1025.7
"2015-01-03 05:10:00",3.0,2.7,2.2,0.0,1025.6
"2015-01-03 05:11:00",3.0,2.7,2.2,0.0,1025.6
"2015-01-03 05:12:00",3.0,2.8,2.4,0.0,1025.6
"2015-01-03 05:13:00",3.1,2.8,2.4,0.0,1025.6
"2015-01-03 05:14:00",3.1,2.8,2.4,0.0,1025.5
"2015-01-03 05:15:00",3.1,2.8,2.4,0.0,1025.5
"2015-01-03 05:16:00",3.1,2.8,2.4,0.0,1025.4
"2015-01-03 05:17:00",3.1,2.8,2.4,0.0,1025.3
"2015-01-03 05:18:00",3.1,2.8,2.4,0.0,1025.3
"2015-01-03 05:19:00",3.1,2.8,2.4,0.0,1025.3
"2015-01-03 05:20:00",3.1,2.8,3.2,0.0,1025.2
"2015-01-03 05:21:00",3.1,2.8,3.2,0.0,1025.2
"2015-01-03 05:22:00",3.1,2.8,3.2,0.0,1025.2
"2015-01-03 05:23:00",3.1,2.8,3.2,0.0,1025.2
"2015-01-03 05:24:00",3.1,2.8,3.2,0.0,1025.1
"2015-01-03 05:25:00",3.1,2.8,3.4,0.0,1025.0
"2015-01-03 05:26:00",3.1,2.8,3.4,0.0,1025.0
"2015-01-03 05:27:00",3.1,2.8,3.4,0.0,1025.0
"2015-01-03 05:28:00",3.2,2.9,3.4,0.0,1024.9
"2015-01-03 05:29:00",3.2,2.9,3.4,0.0,1024.8
"2015-01-03 05:30:00",3.2,2.9,3.4,0.0,1024.8
"2015-01-03 05:31:00",3.2,2.9,3.4,0.0,1024.8
"2015-01-03 05:32:00",3.2,2.9,3.4,0.0,1024.8
"2015-01-03 05:33:00",3.2,2.9,3.6,0.0,1024.7
"2015-01-03 05:34:00",3.2,2.9,3.6,0.0,1024.7
"2015-01-03 05:35:00",3.2,2.9,3.6,0.0,1024.7
"2015-01-03 05:36:00",3.2,2.9,3.6,0.0,1024.6
"2015-01-03 05:37:00",3.2,2.9,3.6,0.0,1024.6
"2015-01-03 05:38:00",3.2,2.9,3.6,0.0,1024.6
"2015-01-03 05:39:00",3.2,2.9,3.6,0.0,1024.6
"2015-01-03 05:40:00",3.2,2.9,3.8,0.0,1024.5
"2015-01-03 05:41:00",3.2,2.9,3.8,0.0,1024.5
"2015-01-03 05:42:00",3.2,2.9,3.8,0.0,1024.5
"2015-01-03 05:43:00",3.2,2.9,3.8,0.0,1024.5
"2015-01-03 05:44:00",3.2,2.9,3.8,0.0,1024.5
"2015-01-03 05:45:00",3.2,2.9,3.8,0.0,1024.4
"2015-01-03 05:46:00",3.2,2.9,3.8,0.0,1024.4
"2015-01-03 05:47:00",3.2,2.9,3.8,0.0,1024.4
"2015-01-03 05:48:00",3.2,2.9,4.0,0.0,1024.4
"2015-01-03 05:49:00",3.2,2.9,4.0,0.0,1024.4
"2015-01-03 05:50:00",3.2,2.9,4.0,0.0,1024.3
"2015-01-03 05:51:00",3.2,2.9,4.0,0.0,1024.3
"2015-01-03 05:52:00",3.2,2.9,4.0,0.0,1024.4
"2015-01-03 05:53:00",3.3,3.0,4.0,0.0,1024.4
"2015-01-03 05:54:00",3.3,3.0,4.0,0.0,1024.3
"2015-01-03 05:55:00",3.3,3.0,4.0,0.0,1024.3
"2015-01-03 05:56:00",3.3,3.0,4.2,0.0,1024.2
"2015-01-03 05:57:00",3.3,3.0,4.2,0.0,1024.1
"2015-01-03 05:58:00",3.3,3.0,4.2,0.0,1024.1
"2015-01-03 05:59:00",3.3,3.0,4.2,0.0,1024.1
"2015-01-03 06:00:00",3.3,3.0,4.2,0.0,1024.0
"2015-01-03 06:01:00",3.3,3.0,4.2,0.0,1024.0
"2015-01-03 06:02:00",3.3,3.0,4.4,0.0,1023.9
"2015-01-03 06:03:00",3.3,3.0,4.4,0.0,1023.8
"2015-01-03 06:04:00",3.3,3.1,4.4,0.0,1023.8
"2015-01-03 06:05:00",3.4,3.1,4.4,0.0,1023.7
"2015-01-03 06:07:00",3.4,3.2,4.6,0.0,1023.6
"2015-01-03 06:08:00",3.4,3.1,4.6,0.0,1023.6
"2015-01-03 06:09:00",3.4,3.3,4.6,0.0,1023.5
"2015-01-03 06:10:00",3.4,3.3,4.6,0.0,1023.4
"2015-01-03 06:11:00",3.4,3.3,4.6,0.0,1023.4
"2015-01-03 06:12:00",3.4,3.3,4.6,0.0,1023.4
"2015-01-03 06:13:00",3.5,3.3,4.8,0.0,1023.3
"2015-01-03 06:14:00",3.5,3.2,4.8,0.0,1023.2
"2015-01-03 06:15:00",3.5,3.2,4.8,0.0,1023.1
"2015-01-03 06:16:00",3.5,3.2,4.8,0.0,1023.0
"2015-01-03 06:17:00",3.5,3.2,4.8,0.0,1023.0
"2015-01-03 06:18:00",3.5,3.2,4.8,0.0,1022.9
"2015-01-03 06:19:00",3.5,3.2,4.8,0.0,1022.9
"2015-01-03 06:20:00",3.6,3.3,4.8,0.0,1022.8
"2015-01-03 06:21:00",3.6,3.3,4.8,0.0,1022.8
"2015-01-03 06:22:00",3.6,3.3,4.8,0.0,1022.7
"2015-01-03 06:23:00",3.6,3.3,5.0,0.0,1022.7
"2015-01-03 06:24:00",3.6,3.3,5.0,0.0,1022.6
"2015-01-03 06:25:00",3.6,3.3,5.0,0.0,1022.6
"2015-01-03 06:26:00",3.6,3.3,5.0,0.0,1022.5
"2015-01-03 06:27:00",3.6,3.3,5.0,0.0,1022.5
"2015-01-03 06:28:00",3.6,3.3,5.0,0.0,1022.5
"2015-01-03 06:29:00",3.6,3.3,5.0,0.0,1022.5
"2015-01-03 06:30:00",3.7,3.4,5.0,0.0,1022.5
"2015-01-03 06:31:00",3.7,3.4,5.0,0.0,1022.5
"2015-01-03 06:32:00",3.7,3.4,5.0,0.0,1022.6
"2015-01-03 06:33:00",3.7,3.5,5.0,0.0,1022.6
"2015-01-03 06:34:00",3.7,3.5,5.0,0.0,1022.6
"2015-01-03 06:35:00",3.7,3.5,5.0,0.0,1022.6
"2015-01-03 06:36:00",3.7,3.5,5.0,0.0,1022.6
"2015-01-03 06:37:00",3.7,3.5,5.0,0.0,1022.6
"2015-01-03 06:38:00",3.7,3.5,5.0,0.0,1022.6
"2015-01-03 06:39:00",3.7,3.6,5.0,0.0,1022.6
"2015-01-03 06:40:00",3.7,3.6,5.0,0.0,1022.6
"2015-01-03 06:41:00",3.7,3.6,5.0,0.0,1022.5
"2015-01-03 06:42:00",3.7,3.6,5.0,0.0,1022.5
"2015-01-03 06:43:00",3.7,3.6,5.0,0.0,1022.5
"2015-01-03 06:44:00",3.7,3.6,5.0,0.0,1022.4
"2015-01-03 06:45:00",3.7,3.6,5.0,0.0,1022.4
"2015-01-03 06:46:00",3.7,3.6,5.0,0.0,1022.4
"2015-01-03 06:47:00",3.7,3.6,5.0,0.0,1022.4
"2015-01-03 06:48:00",3.7,3.6,5.0,0.0,1022.3
"2015-01-03 06:49:00",3.7,3.6,5.0,0.0,1022.3
"2015-01-03 06:50:00",3.7,3.6,5.0,0.0,1022.3
"2015-01-03 06:51:00",3.7,3.6,5.2,0.0,1022.2
"2015-01-03 06:52:00",3.7,3.6,5.2,0.0,1022.2
"2015-01-03 06:53:00",3.7,3.6,5.2,0.0,1022.1
"2015-01-03 06:54:00",3.7,3.6,5.2,0.0,1022.1
"2015-01-03 06:55:00",3.7,3.6,5.2,0.0,1022.1
"2015-01-03 06:56:00",3.7,3.6,5.2,0.0,1022.1
"2015-01-03 06:57:00",3.7,3.6,5.2,0.0,1022.2
"2015-01-03 06:58:00",3.7,3.6,5.2,0.0,1022.2
"2015-01-03 06:59:00",3.7,3.6,5.2,0.0,1022.2
"2015-01-03 07:00:00",3.7,3.6,5.2,0.0,1022.2
"2015-01-03 07:01:00",3.7,3.6,5.4,0.0,1022.1
"2015-01-03 07:02:00",3.7,3.6,5.4,0.0,1022.1
"2015-01-03 07:03:00",3.7,3.6,5.4,0.0,1022.1
"2015-01-03 07:04:00",3.7,3.6,5.4,0.0,1022.1
"2015-01-03 07:05:00",3.7,3.6,5.4,0.0,1022.1
"2015-01-03 07:06:00",3.7,3.6,5.4,0.0,1022.1
"2015-01-03 07:07:00",3.7,3.6,5.4,0.0,1022.1
"2015-01-03 07:08:00",3.7,3.6,5.4,0.0,1022.0
"2015-01-03 07:09:00",3.7,3.6,5.4,0.0,1022.0
"2015-01-03 07:10:00",3.7,3.6,5.4,0.0,1022.0
"2015-01-03 07:11:00",3.8,3.6,5.4,0.0,1022.0
"2015-01-03 07:12:00",3.7,3.6,5.4,0.0,1021.9
"2015-01-03 07:13:00",3.8,3.6,5.4,0.0,1021.9
"2015-01-03 07:14:00",3.8,3.6,5.6,0.0,1021.9
"2015-01-03 07:15:00",3.8,3.6,5.6,0.0,1021.9
"2015-01-03 07:16:00",3.8,3.6,5.6,0.0,1021.9
"2015-01-03 07:17:00",3.8,3.6,5.6,0.0,1021.8
"2015-01-03 07:18:00",3.8,3.6,5.8,0.0,1021.8
"2015-01-03 07:19:00",3.8,3.6,5.8,0.0,1021.7
"2015-01-03 07:20:00",3.8,3.6,5.8,0.0,1021.6
"2015-01-03 07:21:00",3.8,3.6,5.8,0.0,1021.6
"2015-01-03 07:22:00",3.8,3.6,5.8,0.0,1021.6
"2015-01-03 07:23:00",3.8,3.6,5.8,0.0,1021.5
"2015-01-03 07:24:00",3.8,3.6,6.0,0.0,1021.5
"2015-01-03 07:25:00",3.8,3.6,6.0,0.0,1021.5
"2015-01-03 07:26:00",3.8,3.6,6.0,0.0,1021.5
"2015-01-03 07:27:00",3.8,3.6,6.0,0.0,1021.4
"2015-01-03 07:28:00",3.8,3.6,6.2,0.0,1021.4
"2015-01-03 07:29:00",3.8,3.6,6.2,0.0,1021.3
"2015-01-03 07:30:00",3.8,3.7,6.2,0.0,1021.2
"2015-01-03 07:31:00",3.8,3.7,6.2,0.0,1021.1
"2015-01-03 07:32:00",3.8,3.7,6.2,0.0,1021.1
"2015-01-03 07:33:00",3.8,3.7,6.2,0.0,1021.0
"2015-01-03 07:34:00",3.8,3.7,6.4,0.0,1020.9
"2015-01-03 07:35:00",3.8,3.7,6.4,0.0,1020.8
"2015-01-03 07:36:00",3.8,3.7,6.4,0.0,1020.7
"2015-01-03 07:37:00",3.8,3.7,6.4,0.0,1020.7
"2015-01-03 07:38:00",3.8,3.7,6.4,0.0,1020.6
"2015-01-03 07:39:00",3.8,3.7,6.6,0.0,1020.5
"2015-01-03 07:40:00",3.8,3.7,6.6,0.0,1020.5
"2015-01-03 07:41:00",3.9,3.7,6.6,0.0,1020.5
"2015-01-03 07:42:00",3.9,3.7,6.6,0.0,1020.4
"2015-01-03 07:43:00",3.9,3.7,6.6,0.0,1020.4
"2015-01-03 07:44:00",3.9,3.7,6.6,0.0,1020.3
"2015-01-03 07:45:00",3.9,3.7,6.6,0.0,1020.3
"2015-01-03 07:46:00",3.9,3.8,6.6,0.0,1020.4
"2015-01-03 07:47:00",3.9,3.8,6.6,0.0,1020.4
"2015-01-03 07:48:00",3.9,3.8,6.6,0.0,1020.5
"2015-01-03 07:49:00",3.9,3.8,6.6,0.0,1020.5
"2015-01-03 07:50:00",3.9,3.8,6.6,0.0,1020.4
"2015-01-03 07:51:00",3.9,3.8,6.6,0.0,1020.4
"2015-01-03 07:52:00",3.9,3.8,6.8,0.0,1020.4
"2015-01-03 07:53:00",3.9,3.8,6.8,0.0,1020.4
"2015-01-03 07:54:00",3.9,3.8,6.8,0.0,1020.4
"2015-01-03 07:55:00",4.0,3.8,6.8,0.0,1020.3
"2015-01-03 07:56:00",4.0,3.8,6.8,0.0,1020.3
"2015-01-03 07:57:00",4.0,3.9,6.8,0.0,1020.2
"2015-01-03 07:58:00",4.0,3.9,6.8,0.0,1020.1
"2015-01-03 07:59:00",4.0,3.9,6.8,0.0,1020.0
"2015-01-03 08:00:00",4.0,3.9,7.0,0.0,1019.9
"2015-01-03 08:01:00",4.0,3.9,7.0,0.0,1019.9
"2015-01-03 08:02:00",4.0,3.9,7.0,0.0,1019.8
"2015-01-03 08:03:00",4.0,3.9,7.0,0.0,1019.7
"2015-01-03 08:04:00",4.0,3.9,7.0,0.0,1019.6
"2015-01-03 08:05:00",4.0,3.9,7.0,0.0,1019.4
"2015-01-03 08:06:00",4.0,3.9,7.0,0.0,1019.3
"2015-01-03 08:07:00",4.0,3.9,7.0,0.0,1019.3
"2015-01-03 08:08:00",4.0,3.9,7.0,0.0,1019.2
"2015-01-03 08:09:00",4.1,3.9,7.0,0.0,1019.1
"2015-01-03 08:10:00",4.1,3.9,7.0,0.0,1019.1
"2015-01-03 08:11:00",4.1,3.9,7.0,0.0,1019.1
"2015-01-03 08:12:00",4.1,3.9,7.0,0.0,1019.0
"2015-01-03 08:13:00",4.1,3.9,7.0,0.0,1018.9
"2015-01-03 08:14:00",4.1,4.0,7.0,0.0,1019.0
"2015-01-03 08:15:00",4.1,4.0,7.0,0.0,1019.0
"2015-01-03 08:16:00",4.1,4.0,7.2,0.0,1019.0
"2015-01-03 08:17:00",4.1,4.0,7.2,0.0,1019.0
"2015-01-03 08:18:00",4.2,4.0,7.2,0.0,1019.0
"2015-01-03 08:19:00",4.2,4.0,7.2,0.0,1018.9
"2015-01-03 08:20:00",4.2,4.0,7.2,0.0,1018.8
"2015-01-03 08:21:00",4.2,4.0,7.2,0.0,1018.8
"2015-01-03 08:22:00",4.2,4.1,7.2,0.0,1018.7
"2015-01-03 08:23:00",4.2,4.1,7.2,0.0,1018.7
"2015-01-03 08:24:00",4.2,4.1,7.2,0.0,1018.8
"2015-01-03 08:25:00",4.2,4.1,7.2,0.0,1018.9
"2015-01-03 08:26:00",4.2,4.1,7.2,0.0,1018.9
"2015-01-03 08:27:00",4.3,4.1,7.2,0.0,1018.8
"2015-01-03 08:28:00",4.3,4.1,7.2,0.0,1018.8
"2015-01-03 08:29:00",4.3,4.1,7.2,0.0,1018.8
"2015-01-03 08:30:00",4.3,4.1,7.2,0.0,1018.8
"2015-01-03 08:31:00",4.3,4.2,7.2,0.0,1018.7
"2015-01-03 08:32:00",4.3,4.2,7.2,0.0,1018.7
"2015-01-03 08:33:00",4.3,4.2,7.2,0.0,1018.7
"2015-01-03 08:34:00",4.3,4.2,7.2,0.0,1018.6
"2015-01-03 08:35:00",4.3,4.2,7.2,0.0,1018.6
"2015-01-03 08:36:00",4.4,4.2,7.2,0.0,1018.6
"2015-01-03 08:37:00",4.4,4.2,7.2,0.0,1018.7
"2015-01-03 08:38:00",4.4,4.2,7.2,0.0,1018.7
"2015-01-03 08:39:00",4.4,4.2,7.2,0.0,1018.7
"2015-01-03 08:40:00",4.4,4.3,7.2,0.0,1018.6
"2015-01-03 08:41:00",4.4,4.3,7.2,0.0,1018.6
"2015-01-03 08:42:00",4.4,4.3,7.2,0.0,1018.6
"2015-01-03 08:43:00",4.4,4.3,7.2,0.0,1018.7
"2015-01-03 08:44:00",4.4,4.3,7.2,0.0,1018.7
"2015-01-03 08:45:00",4.4,4.3,7.2,0.0,1018.7
"2015-01-03 08:46:00",4.4,4.3,7.2,0.0,1018.7
"2015-01-03 08:47:00",4.5,4.3,7.2,0.0,1018.7
"2015-01-03 08:48:00",4.5,4.3,7.2,0.0,1018.7
"2015-01-03 08:49:00",4.5,4.4,7.2,0.0,1018.7
"2015-01-03 08:50:00",4.5,4.4,7.2,0.0,1018.7
"2015-01-03 08:51:00",4.5,4.4,7.2,0.0,1018.7
"2015-01-03 08:52:00",4.5,4.4,7.2,0.0,1018.8